Alexandria, LA

9:49 AM CST on February 20, 2017 (GMT -0600)
Alexandria International

Weather History for KAEX - December, 2012

Change the Weather History Date:

Sunday, December 2, 2012

  Actual Average Record
Temperature  
Mean Temperature 71 °F 52 °F  
Max Temperature 81 °F 63 °F 84 °F (1906)
Min Temperature 60 °F 42 °F 23 °F (1910)
Degree Days  
Heating Degree Days 0 13  
Month to date heating degree days 0 26  
Since 1 July heating degree days 367 351  
Cooling Degree Days 5    
Growing Degree Days 20 (Base 50)    
Moisture  
Dew Point 61 °F    
Average Humidity 75    
Maximum Humidity 100    
Minimum Humidity 49    
Precipitation  
Precipitation 0.00 in 0.28 in 1.70 in (1971)
Month to date precipitation 0.00 0.57  
Year to date precipitation 47.97 50.37  
Snow  
Snow 0.00 in - 1.00 in (1896)
Month to date snowfall 0.0  
Since 1 July snowfall 0.0  
Snow Depth 0.00 in    
Sea Level Pressure  
Sea Level Pressure 30.19 in    
Wind  
Wind Speed 6 mph (SE)    
Max Wind Speed 13 mph    
Max Gust Speed 17 mph    
Visibility 6 miles    
Events Fog    
T = Trace of Precipitation, MM = Missing Value Source: NWS Daily Summary

Daily Weather History Graph

Daily Weather History Graph

Search for Another Location

Airport or City:

Trip Planner

Search our weather history database for the weather conditions in past years. The results will help you decide how hot, cold, wet, or windy it might be!

Date:

Astronomy

Dec. 02, 2012 Rise Set
Actual Time 6:52 AM CST 5:07 PM CST
Civil Twilight 6:26 AM CST 5:33 PM CST
Nautical Twilight 5:56 AM CST 6:03 PM CST
Astronomical Twilight 5:26 AM CST 6:32 PM CST
Moon 8:48 PM CST (12/2) 9:47 AM CST (12/2)
Length of Visible Light 11h 07m
Length of Day
10h 14m
Waning Gibbous, 85% of the Moon is Illuminated
Dec 2
Waning Gibbous
Dec 6
Last Quarter
Dec 13
New
Dec 19
First Quarter
Dec 28
Full

Hourly Weather History & Observations

Time (CST) Temp. Heat Index Dew Point Humidity Pressure Visibility Wind Dir Wind Speed Gust Speed Precip Events Conditions
12:21 AM 64.4 °F - 62.6 °F 94% 30.15 in 10.0 mi South 3.5 mph - N/A   Overcast
12:53 AM 64.9 °F - 62.1 °F 90% 30.16 in 10.0 mi SSE 4.6 mph - N/A   Mostly Cloudy
1:53 AM 66.0 °F - 62.1 °F 87% 30.17 in 10.0 mi South 5.8 mph - N/A   Overcast
2:07 AM 64.4 °F - 62.6 °F 94% 30.16 in 10.0 mi SSE 4.6 mph - N/A   Overcast
2:53 AM 62.1 °F - 60.1 °F 93% 30.17 in 7.0 mi Calm Calm - N/A   Mostly Cloudy
3:36 AM 60.8 °F - 59.0 °F 94% 30.17 in 4.0 mi ESE 3.5 mph - N/A   Mostly Cloudy
3:53 AM 60.1 °F - 59.0 °F 96% 30.19 in 4.0 mi SE 4.6 mph - N/A   Mostly Cloudy
4:32 AM 62.6 °F - 60.8 °F 94% 30.18 in 7.0 mi ESE 3.5 mph - N/A   Overcast
4:53 AM 62.1 °F - 61.0 °F 96% 30.19 in 7.0 mi ESE 3.5 mph - N/A   Overcast
5:33 AM 62.6 °F - 60.8 °F 94% 30.18 in 4.0 mi ESE 4.6 mph - N/A   Overcast
6:23 AM 62.6 °F - 60.8 °F 94% 30.19 in 1.2 mi SE 8.1 mph - N/A   Overcast
6:39 AM 60.8 °F - 60.8 °F 100% 30.20 in 0.5 mi ESE 6.9 mph - N/A Fog Fog
6:53 AM 61.0 °F - 60.1 °F 97% 30.22 in 0.8 mi SE 8.1 mph - N/A   Mist
7:02 AM 60.8 °F - 60.8 °F 100% 30.20 in 1.0 mi ESE 5.8 mph - N/A   Mist
7:16 AM 60.8 °F - 60.8 °F 100% 30.21 in 0.5 mi SE 8.1 mph - N/A Fog Fog
7:30 AM 60.8 °F - 60.8 °F 100% 30.21 in 0.2 mi SE 6.9 mph - N/A Fog Fog
7:53 AM 61.0 °F - 60.1 °F 97% 30.23 in 0.2 mi SE 8.1 mph - N/A Fog Fog
8:24 AM 62.6 °F - 60.8 °F 94% 30.22 in 0.5 mi SE 8.1 mph - N/A Fog Fog
8:36 AM 62.6 °F - 60.8 °F 94% 30.23 in 1.2 mi SSE 8.1 mph - N/A   Overcast
8:49 AM 62.6 °F - 60.8 °F 94% 30.23 in 2.0 mi SE 8.1 mph - N/A   Overcast
8:53 AM 62.1 °F - 61.0 °F 96% 30.24 in 2.5 mi SSE 9.2 mph - N/A   Overcast
9:53 AM 66.0 °F - 62.1 °F 87% 30.25 in 2.5 mi SE 6.9 mph - N/A   Overcast
10:00 AM 66.2 °F - 62.6 °F 88% 30.23 in 8.0 mi SE 9.2 mph - N/A   Overcast
10:08 AM 68.0 °F - 62.6 °F 83% 30.23 in 9.0 mi SE 10.4 mph - N/A   Overcast
10:28 AM 69.8 °F - 62.6 °F 78% 30.22 in 10.0 mi SE 9.2 mph - N/A   Scattered Clouds
10:53 AM 72.0 °F - 63.0 °F 73% 30.23 in 10.0 mi SE 8.1 mph - N/A   Scattered Clouds
11:12 AM 75.2 °F - 64.4 °F 69% 30.20 in 10.0 mi SE 9.2 mph - N/A   Mostly Cloudy
11:53 AM 77.0 °F - 63.0 °F 62% 30.19 in 10.0 mi South 8.1 mph - N/A   Mostly Cloudy
12:53 PM 79.0 °F - 61.0 °F 54% 30.16 in 10.0 mi SSW 6.9 mph - N/A   Scattered Clouds
1:53 PM 80.1 °F 80.9 °F 60.1 °F 50% 30.13 in 10.0 mi SSW 6.9 mph - N/A   Mostly Cloudy
2:53 PM 80.1 °F 80.7 °F 59.0 °F 48% 30.12 in 10.0 mi SSE 9.2 mph 17.3 mph N/A   Scattered Clouds
3:53 PM 79.0 °F - 59.0 °F 50% 30.12 in 10.0 mi SSE 9.2 mph - N/A   Partly Cloudy
4:53 PM 75.0 °F - 59.0 °F 57% 30.13 in 10.0 mi SSE 5.8 mph - N/A   Clear
5:53 PM 73.0 °F - 60.1 °F 64% 30.14 in 10.0 mi SSE 6.9 mph - N/A   Mostly Cloudy
6:53 PM 71.1 °F - 60.1 °F 68% 30.15 in 10.0 mi South 5.8 mph - N/A   Clear
7:53 PM 70.0 °F - 62.1 °F 76% 30.16 in 10.0 mi South 6.9 mph - N/A   Clear
8:53 PM 68.0 °F - 62.1 °F 81% 30.16 in 10.0 mi SSE 5.8 mph - N/A   Clear
9:53 PM 64.0 °F - 61.0 °F 90% 30.16 in 10.0 mi SSE 4.6 mph - N/A   Clear
10:53 PM 62.1 °F - 61.0 °F 96% 30.17 in 10.0 mi SSE 4.6 mph - N/A   Clear
11:53 PM 60.1 °F - 59.0 °F 96% 30.16 in 7.0 mi SE 4.6 mph - N/A   Partly Cloudy